timestamp,surface_pressure_avg,surface_temp_avg,battery_voltage,lat,long
2023-11-01 00:09:00+00:00,333.9547,10.8,11.3,47.84626,-54.09684
2023-11-01 00:19:01+00:00,343.5129,10.6,11.3,47.84626,-54.09684
2023-11-01 00:29:01+00:00,344.1031,10.78,11.3,47.84626,-54.09684
2023-11-01 00:39:01+00:00,349.0914,10.8,11.3,47.84626,-54.09684
2023-11-01 00:49:01+00:00,356.9546,10.79,11.3,47.84626,-54.09684
2023-11-01 00:59:01+00:00,359.0363,10.75,11.3,47.84626,-54.09684
2023-11-01 01:09:01+00:00,351.1898,10.59,11.3,47.84626,-54.09684
2023-11-01 01:19:01+00:00,355.8713,10.7,11.3,47.84626,-54.09684
2023-11-01 01:29:01+00:00,362.4581,10.7,11.3,47.84626,-54.09684
2023-11-01 01:39:01+00:00,356.6979,10.5,11.3,47.84626,-54.09684
2023-11-01 01:49:01+00:00,352.1929,10.42,11.3,47.84626,-54.09684
2023-11-01 01:59:01+00:00,355.908,10.57,11.3,47.84626,-54.09684
2023-11-01 02:09:01+00:00,362.8179,10.7,11.3,47.84626,-54.09684
2023-11-01 02:19:00+00:00,354.8863,10.7,11.3,47.84626,-54.09684
2023-11-01 02:29:00+00:00,348.00300000000016,10.5,11.3,47.84626,-54.09684
2023-11-01 02:39:00+00:00,347.2728,10.5,11.3,47.84626,-54.09684
2023-11-01 02:49:00+00:00,343.4247,10.7,11.3,47.84626,-54.09684
2023-11-01 02:59:00+00:00,343.8062,10.6,11.3,47.84626,-54.09684
2023-11-01 03:09:00+00:00,341.8645,10.5,11.3,47.84626,-54.09684
2023-11-01 03:19:00+00:00,341.1113,10.44,11.3,47.84626,-54.09684
2023-11-01 03:29:00+00:00,342.3113,10.49,11.3,47.84626,-54.09684
2023-11-01 03:39:00+00:00,339.3062,10.48,11.3,47.84626,-54.09684
2023-11-01 03:49:00+00:00,329.5863,10.4,11.3,47.84626,-54.09684
2023-11-01 03:59:00+00:00,323.8896,10.34,11.3,47.84626,-54.09684
2023-11-01 04:09:00+00:00,323.283,10.4,11.3,47.84626,-54.09684
2023-11-01 04:19:00+00:00,310.238,10.3,11.3,47.84626,-54.09684
2023-11-01 04:29:00+00:00,294.2596,10.2,11.3,47.84626,-54.09684
2023-11-01 04:39:00+00:00,294.1282,10.1,11.3,47.84626,-54.09684
2023-11-01 04:49:00+00:00,289.6097,10.1,11.3,47.84626,-54.09684
2023-11-01 04:59:00+00:00,273.868,10.09,11.3,47.84626,-54.09684
2023-11-01 05:09:00+00:00,260.3481,9.9,11.3,47.84626,-54.09684
2023-11-01 05:19:00+00:00,256.8931,9.8,11.3,47.84626,-54.09684
2023-11-01 05:29:00+00:00,250.4581,9.7,11.3,47.84626,-54.09684
2023-11-01 05:39:00+00:00,234.1864,9.4,11.3,47.84626,-54.09684
2023-11-01 05:49:00+00:00,223.8348,9.2,11.3,47.84626,-54.09684
2023-11-01 05:59:00+00:00,223.1598,9.18,11.3,47.84626,-54.09684
2023-11-01 06:09:00+00:00,219.8781,9.19,11.3,47.84626,-54.09684
2023-11-01 06:19:00+00:00,215.4447,9.19,11.22,47.84626,-54.09684
2023-11-01 06:29:00+00:00,210.3081,9.1,11.22,47.84626,-54.09684
2023-11-01 06:39:00+00:00,208.2164,9.1,11.22,47.84626,-54.09684
2023-11-01 06:49:00+00:00,205.3831,9.1,11.22,47.84626,-54.09684
2023-11-01 06:59:00+00:00,203.6764,9.0,11.22,47.84626,-54.09684
2023-11-01 07:09:00+00:00,207.4165,9.1,11.22,47.84626,-54.09684
2023-11-01 07:19:00+00:00,209.8131,9.2,11.22,47.84626,-54.09684
2023-11-01 07:29:00+00:00,213.3731,9.1,11.22,47.84626,-54.09684
2023-11-01 07:39:00+00:00,212.9181,9.0,11.22,47.84626,-54.09684
2023-11-01 07:49:00+00:00,209.5748,9.1,11.22,47.84626,-54.09684
2023-11-01 07:59:00+00:00,210.1965,9.2,11.22,47.84626,-54.09684
2023-11-01 08:09:00+00:00,220.6947,9.47,11.22,47.84626,-54.09684
2023-11-01 08:19:00+00:00,227.8515,9.67,11.22,47.84626,-54.09684
2023-11-01 08:29:00+00:00,228.8598,9.65,11.22,47.84626,-54.09684
2023-11-01 08:39:00+00:00,232.4431,9.82,11.22,47.84626,-54.09684
2023-11-01 08:49:00+00:00,239.158,10.0,11.22,47.84626,-54.09684
2023-11-01 08:59:00+00:00,244.3114,10.0,11.22,47.84626,-54.09684
2023-11-01 09:09:00+00:00,248.6647,9.97,11.22,47.84626,-54.09684
2023-11-01 09:19:00+00:00,252.5014,9.9,11.22,47.84626,-54.09684
2023-11-01 09:29:00+00:00,256.9647,9.86,11.22,47.84626,-54.09684
2023-11-01 09:39:00+00:00,264.4747,9.8,11.22,47.84626,-54.09684
2023-11-01 09:49:00+00:00,271.4464,9.86,11.22,47.84626,-54.09684
2023-11-01 09:59:00+00:00,277.3681,10.0,11.22,47.84626,-54.09684
2023-11-01 10:09:00+00:00,281.1114,10.0,11.22,47.84626,-54.09684
2023-11-01 10:19:00+00:00,281.4315,9.9,11.22,47.84626,-54.09684
2023-11-01 10:29:00+00:00,288.4797,9.99,11.22,47.84626,-54.09684
2023-11-01 10:39:00+00:00,301.5414,10.15,11.22,47.84626,-54.09684
2023-11-01 10:49:00+00:00,306.1548,10.2,11.22,47.84626,-54.09684
2023-11-01 10:59:00+00:00,305.868,10.2,11.22,47.84626,-54.09684
2023-11-01 11:09:00+00:00,307.923,10.2,11.22,47.84626,-54.09684
2023-11-01 11:19:00+00:00,323.5263,10.24,11.22,47.84626,-54.09684
2023-11-01 11:29:00+00:00,329.2630000000001,10.4,11.22,47.84626,-54.09684
2023-11-01 11:39:00+00:00,333.5246,10.44,11.22,47.84626,-54.09684
2023-11-01 11:49:00+00:00,343.148,10.47,11.22,47.84626,-54.09684
2023-11-01 11:59:00+00:00,356.4513,10.48,11.22,47.84626,-54.09684
2023-11-01 12:09:00+00:00,361.4313,10.4,11.22,47.84626,-54.09684
2023-11-01 12:19:00+00:00,359.0063,10.43,11.37,47.84626,-54.09684
2023-11-01 12:29:00+00:00,364.8579,10.48,11.37,47.84626,-54.09684
2023-11-01 12:39:00+00:00,367.0079,10.5,11.37,47.84626,-54.09684
2023-11-01 12:49:00+00:00,367.1414,10.49,11.37,47.84626,-54.09684
2023-11-01 12:59:00+00:00,375.3779,10.5,11.37,47.84626,-54.09684
2023-11-01 13:09:00+00:00,382.4912,10.5,11.37,47.84626,-54.09684
2023-11-01 13:19:00+00:00,386.7595,10.5,11.3,47.84626,-54.09684
2023-11-01 13:29:00+00:00,392.4779,10.53,11.3,47.84626,-54.09684
2023-11-01 13:39:00+00:00,395.5329,10.6,11.3,47.84626,-54.09684
2023-11-01 13:49:00+00:00,400.0362,10.5,11.3,47.84626,-54.09684
2023-11-01 13:59:00+00:00,402.0697,10.5,11.3,47.84626,-54.09684
2023-11-01 14:09:00+00:00,399.3912,10.5,11.3,47.84626,-54.09684
2023-11-01 14:19:00+00:00,389.7979,10.5,11.3,47.84626,-54.09684
2023-11-01 14:29:00+00:00,384.2029,10.6,11.3,47.84626,-54.09684
2023-11-01 14:39:00+00:00,388.0629,10.5,11.3,47.84626,-54.09684
2023-11-01 14:49:00+00:00,388.8745,10.5,11.3,47.84626,-54.09684
2023-11-01 14:59:00+00:00,379.4662,10.49,11.3,47.84626,-54.09684
2023-11-01 15:09:00+00:00,377.3513,10.4,11.3,47.84626,-54.09684
2023-11-01 15:19:00+00:00,378.6346,10.37,11.37,47.84626,-54.09684
2023-11-01 15:29:00+00:00,379.4163,10.4,11.37,47.84626,-54.09684
2023-11-01 15:39:00+00:00,371.5563,10.4,11.37,47.84626,-54.09684
2023-11-01 15:49:00+00:00,363.2729,10.3,11.37,47.84626,-54.09684
2023-11-01 15:59:00+00:00,360.9179,10.55,11.37,47.84626,-54.09684
2023-11-01 16:09:00+00:00,361.0846,10.6,11.37,47.84626,-54.09684
2023-11-01 16:19:00+00:00,348.168,10.3,11.3,47.84626,-54.09684
2023-11-01 16:29:00+00:00,333.3813,10.3,11.3,47.84626,-54.09684
2023-11-01 16:39:00+00:00,327.923,10.3,11.3,47.84626,-54.09684
2023-11-01 16:49:00+00:00,328.8013,10.3,11.3,47.84626,-54.09684
2023-11-01 16:59:00+00:00,318.4064,10.28,11.3,47.84626,-54.09684
2023-11-01 17:09:00+00:00,305.8763,10.3,11.3,47.84626,-54.09684
2023-11-01 17:19:00+00:00,301.328,10.3,11.22,47.84626,-54.09684
2023-11-01 17:29:00+00:00,298.6163,10.3,11.22,47.84626,-54.09684
2023-11-01 17:39:00+00:00,282.9597,10.2,11.22,47.84626,-54.09684
2023-11-01 17:49:00+00:00,270.5097,10.13,11.22,47.84626,-54.09684
2023-11-01 17:59:00+00:00,269.1097,10.18,11.22,47.84626,-54.09684
2023-11-01 18:09:00+00:00,260.6531,10.2,11.22,47.84626,-54.09684
2023-11-01 18:19:00+00:00,245.2098,10.1,11.22,47.84626,-54.09684
2023-11-01 18:29:00+00:00,236.5731,10.0,11.22,47.84626,-54.09684
2023-11-01 18:39:00+00:00,235.6581,10.0,11.22,47.84626,-54.09684
2023-11-01 18:49:00+00:00,225.6514,10.08,11.22,47.84626,-54.09684
2023-11-01 18:59:00+00:00,218.5648,10.0,11.22,47.84626,-54.09684
2023-11-01 19:09:00+00:00,217.4165,10.0,11.22,47.84626,-54.09684
2023-11-01 19:19:01+00:00,213.9098,10.03,11.22,47.84626,-54.09684
2023-11-01 19:29:01+00:00,215.8081,10.06,11.22,47.84626,-54.09684
2023-11-01 19:39:01+00:00,221.6148,10.0,11.22,47.84626,-54.09684
2023-11-01 19:49:01+00:00,221.9897,10.0,11.22,47.84626,-54.09684
2023-11-01 19:59:01+00:00,219.7115,9.95,11.22,47.84626,-54.09684
2023-11-01 20:09:01+00:00,222.8414,9.98,11.22,47.84626,-54.09684
2023-11-01 20:19:00+00:00,228.7881,9.9,11.22,47.84626,-54.09684
2023-11-01 20:29:00+00:00,229.7148,9.99,11.22,47.84626,-54.09684
2023-11-01 20:39:00+00:00,227.2864,10.17,11.22,47.84626,-54.09684
2023-11-01 20:49:00+00:00,229.0314,10.0,11.22,47.84626,-54.09684
2023-11-01 20:59:00+00:00,236.1598,10.22,11.22,47.84626,-54.09684
2023-11-01 21:09:00+00:00,236.7398,10.4,11.22,47.84626,-54.09684
2023-11-01 21:19:00+00:00,236.2331,10.3,11.22,47.84626,-54.09684
2023-11-01 21:29:00+00:00,242.6881,10.4,11.22,47.84626,-54.09684
2023-11-01 21:39:00+00:00,250.8898,10.27,11.22,47.84626,-54.09684
2023-11-01 21:49:00+00:00,251.1464,10.49,11.22,47.84626,-54.09684
2023-11-01 21:59:00+00:00,255.3797,10.4,11.22,47.84626,-54.09684
2023-11-01 22:09:00+00:00,263.3214,10.2,11.22,47.84626,-54.09684
2023-11-01 22:19:00+00:00,271.4614,10.32,11.14,47.84626,-54.09684
2023-11-01 22:29:00+00:00,276.548,10.41,11.14,47.84626,-54.09684
2023-11-01 22:39:00+00:00,280.2614,10.3,11.14,47.84626,-54.09684
2023-11-01 22:49:00+00:00,285.5015,10.0,11.14,47.84626,-54.09684
2023-11-01 22:59:00+00:00,291.288,10.14,11.14,47.84626,-54.09684
2023-11-01 23:09:00+00:00,293.5013,10.2,11.14,47.84626,-54.09684
2023-11-01 23:19:00+00:00,294.788,10.16,11.14,47.84626,-54.09684
2023-11-01 23:29:00+00:00,294.7448,10.1,11.14,47.84626,-54.09684
2023-11-01 23:39:00+00:00,292.9564,10.21,11.14,47.84626,-54.09684
2023-11-01 23:49:00+00:00,290.818,10.2,11.14,47.84626,-54.09684
2023-11-01 23:59:00+00:00,301.028,10.3,11.14,47.84626,-54.09684
